RYR39QA LPFR-EDLV

Flight info

Callsign RYR39QA
Flight time N/A
Altitude 34000
Route TUPIX Y135 NAPES N747 PIMUR M30 OXACA DCT PARKA Z165 SOTUK Z230 TLD N858 DGO L176 LUSEM DCT LULUT DCT ADABI DCT BOKNO DCT DIBES DCT VIQAQ DCT TSU UN858 OQQAL DCT RANUX DCT VALEK DCT LUTAX UM163 DIK N853 ARCKY T853 IBESA T474 LAA
Aircraft B738/M-SDE2E3FGHIRWXY/LB1

Departure

Time 2026-05-04 05:01
Airport Faro - Gago Coutinho International Airport (LPFR)

Arrival

Time N/A
Airport Weeze (Niederrhein) Airport (EDLV)
Time Latitude Longitude Altitude Speed Heading
2026-05-04 04:26 37.01877 -7.96619 21 ft 0 kts 11°
2026-05-04 04:50 37.01875 -7.96619 19 ft 2 kts 11°
2026-05-04 04:50 37.01851 -7.96625 23 ft 4 kts 11°
2026-05-04 04:51 37.01829 -7.96631 21 ft 4 kts 23°
2026-05-04 04:51 37.01810 -7.96649 20 ft 4 kts 70°
2026-05-04 04:51 37.01807 -7.96676 19 ft 1 kts 99°
2026-05-04 04:51 37.01808 -7.96682 19 ft 0 kts 99°
2026-05-04 04:56 37.01807 -7.96677 19 ft 2 kts 99°
2026-05-04 04:56 37.01804 -7.96649 19 ft 5 kts 99°
2026-05-04 04:56 37.01799 -7.96612 19 ft 8 kts 99°
2026-05-04 04:56 37.01780 -7.96534 20 ft 11 kts 131°
2026-05-04 04:57 37.01710 -7.96528 19 ft 11 kts 192°
2026-05-04 04:57 37.01638 -7.96531 19 ft 10 kts 165°
2026-05-04 04:57 37.01609 -7.96458 19 ft 10 kts 98°
2026-05-04 04:57 37.01597 -7.96374 19 ft 10 kts 101°
2026-05-04 04:58 37.01584 -7.96291 20 ft 10 kts 101°
2026-05-04 04:58 37.01569 -7.96195 19 ft 13 kts 99°
2026-05-04 04:58 37.01553 -7.96077 20 ft 15 kts 101°
2026-05-04 04:58 37.01535 -7.95939 19 ft 17 kts 99°
2026-05-04 04:59 37.01509 -7.95848 19 ft 9 kts 135°
2026-05-04 04:59 37.01449 -7.95836 19 ft 9 kts 190°
2026-05-04 04:59 37.01388 -7.95850 19 ft 9 kts 191°
2026-05-04 04:59 37.01343 -7.95882 19 ft 2 kts 254°
2026-05-04 05:00 37.01345 -7.95893 19 ft 0 kts 281°
2026-05-04 05:00 37.01346 -7.95895 19 ft 0 kts 281°
2026-05-04 05:00 37.01352 -7.95934 19 ft 24 kts 281°
2026-05-04 05:01 37.01431 -7.96484 21 ft 103 kts 280°
2026-05-04 05:01 37.01602 -7.97627 38 ft 161 kts 279°
2026-05-04 05:01 37.01796 -7.99082 754 ft 165 kts 281°
2026-05-04 05:01 37.01998 -8.00478 1628 ft 174 kts 284°
2026-05-04 05:02 37.02227 -8.01998 2429 ft 186 kts 284°
2026-05-04 05:02 37.02503 -8.03657 3028 ft 194 kts 284°
2026-05-04 05:02 37.02769 -8.05349 3582 ft 205 kts 282°
2026-05-04 05:02 37.02997 -8.07157 4155 ft 209 kts 274°
2026-05-04 05:03 37.02708 -8.08897 4961 ft 209 kts 246°
2026-05-04 05:03 37.01832 -8.10466 5153 ft 237 kts 227°
2026-05-04 05:04 36.96700 -8.10236 7352 ft 268 kts 138°
2026-05-04 05:04 36.95582 -8.08324 8000 ft 284 kts 121°
2026-05-04 05:04 36.94692 -8.05979 8364 ft 310 kts 114°
2026-05-04 05:06 36.88233 -7.86614 12948 ft 389 kts 117°
2026-05-04 05:06 36.87124 -7.83506 13760 ft 394 kts 117°
2026-05-04 05:06 36.86012 -7.80398 14451 ft 400 kts 117°
2026-05-04 05:07 36.84869 -7.77208 15177 ft 404 kts 117°
2026-05-04 05:07 36.83796 -7.73939 15887 ft 412 kts 108°
2026-05-04 05:07 36.83527 -7.70347 16582 ft 421 kts 85°
2026-05-04 05:09 36.99223 -7.48215 21496 ft 450 kts 40°
2026-05-04 05:09 37.01507 -7.45515 22066 ft 454 kts 40°
2026-05-04 05:10 37.03814 -7.42786 22609 ft 458 kts 40°
2026-05-04 05:10 37.06108 -7.40068 23145 ft 462 kts 40°
2026-05-04 05:10 37.08170 -7.36934 23621 ft 473 kts 58°
2026-05-04 05:10 37.09538 -7.33159 24080 ft 478 kts 67°
2026-05-04 05:11 37.10790 -7.29280 24512 ft 482 kts 67°
2026-05-04 05:11 37.12055 -7.25375 24897 ft 486 kts 67°
2026-05-04 05:11 37.13357 -7.21436 25258 ft 491 kts 66°
2026-05-04 05:11 37.14690 -7.17474 25587 ft 497 kts 66°
2026-05-04 05:12 37.16048 -7.13477 25994 ft 500 kts 66°
2026-05-04 05:12 37.17414 -7.09462 26419 ft 502 kts 66°
2026-05-04 05:12 37.18786 -7.05417 26802 ft 506 kts 66°
2026-05-04 05:12 37.20044 -7.01283 27143 ft 510 kts 73°
2026-05-04 05:13 37.20902 -6.97076 27460 ft 514 kts 78°
2026-05-04 05:13 37.21670 -6.92673 27790 ft 517 kts 79°
2026-05-04 05:13 37.22431 -6.88252 28155 ft 521 kts 78°
2026-05-04 05:13 37.23227 -6.83805 28511 ft 523 kts 78°
2026-05-04 05:14 37.24060 -6.79346 28830 ft 527 kts 78°
2026-05-04 05:14 37.24909 -6.74856 29155 ft 530 kts 78°
2026-05-04 05:14 37.25746 -6.70338 29485 ft 533 kts 78°
2026-05-04 05:14 37.26571 -6.65787 29850 ft 535 kts 78°
2026-05-04 05:15 37.27392 -6.61241 30284 ft 534 kts 78°
2026-05-04 05:15 37.28397 -6.56759 30678 ft 534 kts 67°
2026-05-04 05:15 37.30177 -6.52678 31108 ft 531 kts 51°
2026-05-04 05:15 37.32546 -6.49255 31559 ft 523 kts 38°
2026-05-04 05:16 37.35417 -6.46552 31944 ft 512 kts 25°
2026-05-04 05:16 37.38522 -6.44223 32234 ft 514 kts 25°
2026-05-04 05:16 37.41608 -6.41920 32484 ft 517 kts 25°
2026-05-04 05:16 37.44691 -6.39591 32862 ft 516 kts 25°
2026-05-04 05:17 37.47713 -6.37272 33313 ft 514 kts 26°
2026-05-04 05:17 37.50751 -6.34911 33776 ft 512 kts 26°
2026-05-04 05:17 37.53777 -6.32543 34045 ft 514 kts 26°
2026-05-04 05:17 37.56825 -6.30151 34053 ft 517 kts 26°
2026-05-04 05:18 37.62876 -6.25385 34030 ft 508 kts 26°
2026-05-04 05:18 37.68876 -6.20660 34043 ft 508 kts 26°
2026-05-04 05:19 37.74888 -6.15924 34035 ft 510 kts 26°
2026-05-04 05:19 37.80911 -6.11169 34075 ft 511 kts 26°
2026-05-04 05:20 37.86944 -6.06393 34023 ft 512 kts 26°
2026-05-04 05:20 37.92939 -6.01639 34033 ft 512 kts 26°
2026-05-04 05:21 37.98887 -5.96912 34032 ft 511 kts 26°
2026-05-04 05:21 38.04909 -5.92112 34082 ft 511 kts 27°
2026-05-04 05:22 38.10934 -5.87299 34039 ft 512 kts 27°
2026-05-04 05:22 38.16957 -5.82475 34030 ft 511 kts 27°
2026-05-04 05:23 38.22963 -5.77658 34023 ft 510 kts 27°
2026-05-04 05:23 38.28958 -5.72839 34026 ft 509 kts 27°
2026-05-04 05:24 38.34940 -5.68023 34019 ft 508 kts 27°
2026-05-04 05:24 38.40917 -5.63200 34024 ft 508 kts 27°
2026-05-04 05:25 38.46887 -5.58374 34029 ft 508 kts 27°
2026-05-04 05:25 38.52865 -5.53532 34051 ft 509 kts 27°
2026-05-04 05:26 38.58815 -5.48703 34034 ft 510 kts 27°
2026-05-04 05:26 38.64817 -5.43821 34023 ft 511 kts 27°
2026-05-04 05:28 38.88876 -5.24151 34006 ft 514 kts 27°
2026-05-04 05:29 38.94910 -5.19193 34002 ft 515 kts 27°
2026-05-04 05:29 39.00483 -5.13331 34002 ft 524 kts 45°
2026-05-04 05:31 39.14149 -4.85575 33990 ft 527 kts 57°
2026-05-04 05:31 39.16082 -4.81560 33997 ft 527 kts 56°